DLH401 KJFK-EDDF

Flight info

Callsign DLH401
Flight time N/A
Altitude 35000
Route GREKI DCT JUDDS DCT MARTN DCT EBONY N567B TUDEP/M083F370 DCT 52N050W 54N040W 55N030W 55N020W DCT DOGAL DCT BEXET/N0478F370 DCT MORAG DCT NUCHU L607 KONAN DCT KOK UL607 FERDI DCT REMBA DCT SPI T180 NIVNU T847 IMCOM IMCOM1D
Aircraft A346/H-SDE2E3FGHIJ3J4J5M1RWXY/LB1D1

Departure

Time 2026-05-08 06:01
Airport John F. Kennedy International Airport (KJFK)

Arrival

Time N/A
Airport Frankfurt Main Airport (EDDF)
Time Latitude Longitude Altitude Speed Heading
2026-05-08 05:21 40.64101 -73.79198 29 ft 0 kts 327°
2026-05-08 05:53 40.64096 -73.79194 28 ft 4 kts 327°
2026-05-08 05:53 40.64073 -73.79175 27 ft 4 kts 327°
2026-05-08 05:53 40.64051 -73.79155 27 ft 4 kts 327°
2026-05-08 05:54 40.64028 -73.79136 27 ft 3 kts 327°
2026-05-08 05:54 40.64025 -73.79133 26 ft 0 kts 327°
2026-05-08 05:56 40.64033 -73.79142 27 ft 6 kts 314°
2026-05-08 05:56 40.64018 -73.79210 29 ft 12 kts 226°
2026-05-08 05:56 40.63951 -73.79285 28 ft 10 kts 207°
2026-05-08 05:56 40.63867 -73.79246 28 ft 19 kts 124°
2026-05-08 05:57 40.63784 -73.79068 29 ft 27 kts 121°
2026-05-08 05:57 40.63686 -73.78851 30 ft 27 kts 121°
2026-05-08 05:57 40.63587 -73.78633 30 ft 28 kts 121°
2026-05-08 05:57 40.63487 -73.78411 30 ft 28 kts 121°
2026-05-08 05:58 40.63387 -73.78189 30 ft 28 kts 121°
2026-05-08 05:58 40.63333 -73.77966 29 ft 21 kts 82°
2026-05-08 05:58 40.63310 -73.77810 31 ft 18 kts 120°
2026-05-08 05:58 40.63268 -73.77713 32 ft 19 kts 120°
2026-05-08 05:59 40.63196 -73.77552 31 ft 22 kts 121°
2026-05-08 05:59 40.63114 -73.77373 30 ft 23 kts 121°
2026-05-08 05:59 40.63028 -73.77184 29 ft 25 kts 121°
2026-05-08 05:59 40.62952 -73.77098 29 ft 13 kts 186°
2026-05-08 06:00 40.62868 -73.77144 30 ft 13 kts 208°
2026-05-08 06:00 40.62826 -73.77240 30 ft 14 kts 290°
2026-05-08 06:00 40.62881 -73.77357 32 ft 22 kts 301°
2026-05-08 06:00 40.63061 -73.77754 34 ft 78 kts 301°
2026-05-08 06:01 40.63436 -73.78581 30 ft 127 kts 301°
2026-05-08 06:01 40.63952 -73.79720 29 ft 166 kts 300°
2026-05-08 06:01 40.64581 -73.81130 201 ft 179 kts 302°
2026-05-08 06:01 40.65045 -73.82557 906 ft 162 kts 281°
2026-05-08 06:02 40.65046 -73.84038 1321 ft 167 kts 255°
2026-05-08 06:02 40.64453 -73.85398 1589 ft 178 kts 228°
2026-05-08 06:02 40.63565 -73.86548 1935 ft 180 kts 225°
2026-05-08 06:02 40.62627 -73.87660 2304 ft 184 kts 223°
2026-05-08 06:03 40.61508 -73.88561 2563 ft 196 kts 194°
2026-05-08 06:03 40.60151 -73.88370 2863 ft 205 kts 153°
2026-05-08 06:03 40.59079 -73.87140 3292 ft 208 kts 124°
2026-05-08 06:03 40.58439 -73.85432 3817 ft 208 kts 109°
2026-05-08 06:04 40.58011 -73.83590 4266 ft 216 kts 108°
2026-05-08 06:04 40.57830 -73.81597 4529 ft 229 kts 76°
2026-05-08 06:04 40.58702 -73.79777 4771 ft 242 kts 33°
2026-05-08 06:04 40.60269 -73.78768 5097 ft 256 kts 18°
2026-05-08 06:05 40.62021 -73.77959 5502 ft 271 kts 16°
2026-05-08 06:05 40.63823 -73.77117 6201 ft 276 kts 16°
2026-05-08 06:05 40.65651 -73.76219 6950 ft 278 kts 17°
2026-05-08 06:05 40.67462 -73.75296 7677 ft 281 kts 17°
2026-05-08 06:06 40.69291 -73.74341 8401 ft 284 kts 17°
2026-05-08 06:06 40.71152 -73.73356 9131 ft 287 kts 16°
2026-05-08 06:06 40.73014 -73.72363 9820 ft 290 kts 16°
2026-05-08 06:06 40.74958 -73.71323 10405 ft 296 kts 16°
2026-05-08 06:07 40.76926 -73.70272 10702 ft 311 kts 16°
2026-05-08 06:07 40.78979 -73.69174 10965 ft 326 kts 17°
2026-05-08 06:07 40.81128 -73.68020 11266 ft 341 kts 17°
2026-05-08 06:07 40.83409 -73.66790 11576 ft 357 kts 17°
2026-05-08 06:08 40.85767 -73.65514 11871 ft 373 kts 17°
2026-05-08 06:08 40.88206 -73.64190 12214 ft 386 kts 17°
2026-05-08 06:08 40.90669 -73.62657 12843 ft 393 kts 22°
2026-05-08 06:08 40.93089 -73.60937 13580 ft 397 kts 24°
2026-05-08 06:09 40.95525 -73.59171 14167 ft 402 kts 23°
2026-05-08 06:09 40.98000 -73.57387 14669 ft 408 kts 23°
2026-05-08 06:09 41.00551 -73.55566 15167 ft 415 kts 22°
2026-05-08 06:09 41.03110 -73.53751 15705 ft 420 kts 22°
2026-05-08 06:10 41.05739 -73.51891 16241 ft 425 kts 22°
2026-05-08 06:10 41.08370 -73.50033 16744 ft 431 kts 21°
2026-05-08 06:10 41.11039 -73.48149 17245 ft 437 kts 21°
2026-05-08 06:10 41.13739 -73.46243 17744 ft 443 kts 21°
2026-05-08 06:11 41.16475 -73.44311 18244 ft 448 kts 21°
2026-05-08 06:11 41.19247 -73.42353 18656 ft 454 kts 21°
2026-05-08 06:11 41.22046 -73.40376 19180 ft 457 kts 21°
2026-05-08 06:11 41.24860 -73.38381 19714 ft 459 kts 21°
2026-05-08 06:12 41.27694 -73.36370 20132 ft 465 kts 21°
2026-05-08 06:12 41.30565 -73.34334 20496 ft 471 kts 21°
2026-05-08 06:12 41.33435 -73.32296 20891 ft 476 kts 21°
2026-05-08 06:12 41.36419 -73.30174 21296 ft 482 kts 21°
2026-05-08 06:13 41.39400 -73.28055 21620 ft 490 kts 21°
2026-05-08 06:13 41.42389 -73.25932 21921 ft 497 kts 21°
2026-05-08 06:13 41.45455 -73.23742 22328 ft 502 kts 21°
2026-05-08 06:13 41.48543 -73.21532 22758 ft 506 kts 21°
2026-05-08 06:14 41.51666 -73.19296 23124 ft 512 kts 21°
2026-05-08 06:14 41.54819 -73.17038 23480 ft 517 kts 21°
2026-05-08 06:14 41.57999 -73.14758 23795 ft 521 kts 21°
2026-05-08 06:14 41.61254 -73.12636 24116 ft 517 kts 13°
2026-05-08 06:15 41.64683 -73.11461 24424 ft 502 kts 358°
2026-05-08 06:15 41.68102 -73.11369 24832 ft 483 kts 344°
2026-05-08 06:15 41.71412 -73.11899 25335 ft 478 kts 341°
2026-05-08 06:15 41.74701 -73.12525 25791 ft 478 kts 341°
2026-05-08 06:16 41.78005 -73.13164 26247 ft 481 kts 341°
2026-05-08 06:16 41.81327 -73.13786 26670 ft 483 kts 342°
2026-05-08 06:16 41.84668 -73.14384 27039 ft 485 kts 342°
2026-05-08 06:16 41.88025 -73.14970 27384 ft 488 kts 342°
2026-05-08 06:17 41.94782 -73.16128 28245 ft 489 kts 342°
2026-05-08 06:17 41.98147 -73.16698 28916 ft 486 kts 342°
2026-05-08 06:17 42.01485 -73.17273 29488 ft 484 kts 343°
2026-05-08 06:18 42.04821 -73.17842 29954 ft 483 kts 343°
2026-05-08 06:18 42.08155 -73.18409 30336 ft 483 kts 343°
2026-05-08 06:18 42.11491 -73.18979 30709 ft 483 kts 343°
2026-05-08 06:18 42.14824 -73.19550 31068 ft 483 kts 343°
2026-05-08 06:19 42.18156 -73.20122 31394 ft 483 kts 343°
2026-05-08 06:19 42.21493 -73.20701 31752 ft 484 kts 343°
2026-05-08 06:19 42.24833 -73.21278 32098 ft 484 kts 343°
2026-05-08 06:19 42.28181 -73.21853 32418 ft 485 kts 343°
2026-05-08 06:20 42.31525 -73.22428 32745 ft 485 kts 343°
2026-05-08 06:20 42.34867 -73.23005 33051 ft 485 kts 343°
2026-05-08 06:20 42.38213 -73.23584 33358 ft 485 kts 343°
2026-05-08 06:20 42.41564 -73.24166 33720 ft 486 kts 344°
2026-05-08 06:21 42.44920 -73.24749 33971 ft 487 kts 344°
2026-05-08 06:21 42.48314 -73.25161 34181 ft 496 kts 352°
2026-05-08 06:21 42.51798 -73.24752 34430 ft 510 kts
2026-05-08 06:21 42.55237 -73.23412 34719 ft 520 kts 16°
2026-05-08 06:22 42.58518 -73.21118 35025 ft 529 kts 29°
2026-05-08 06:22 42.61409 -73.17969 35274 ft 537 kts 42°
2026-05-08 06:22 42.63799 -73.14050 35485 ft 541 kts 56°
2026-05-08 06:22 42.65727 -73.09651 35691 ft 543 kts 60°
2026-05-08 06:23 42.69368 -73.00570 35863 ft 549 kts 60°
2026-05-08 06:23 42.71201 -72.96016 35992 ft 551 kts 60°
2026-05-08 06:23 42.73064 -72.91448 36114 ft 552 kts 60°
2026-05-08 06:24 42.74949 -72.86866 36224 ft 555 kts 59°
2026-05-08 06:24 42.76843 -72.82286 36383 ft 555 kts 59°
2026-05-08 06:24 42.78743 -72.77701 36538 ft 556 kts 59°
2026-05-08 06:24 42.80644 -72.73111 36692 ft 556 kts 59°
2026-05-08 06:25 42.82550 -72.68509 36827 ft 557 kts 59°
2026-05-08 06:25 42.84453 -72.63905 36896 ft 558 kts 59°
2026-05-08 06:25 42.88271 -72.54649 36915 ft 560 kts 59°
2026-05-08 06:26 42.92071 -72.45408 36886 ft 557 kts 60°
2026-05-08 06:26 42.95848 -72.36183 36882 ft 556 kts 60°
2026-05-08 06:27 42.99616 -72.26952 36879 ft 556 kts 60°
2026-05-08 06:27 43.03386 -72.17690 36907 ft 558 kts 60°
2026-05-08 06:28 43.07152 -72.08408 36890 ft 557 kts 60°
2026-05-08 06:28 43.10901 -71.99137 36883 ft 557 kts 60°
2026-05-08 06:29 43.14650 -71.89836 36846 ft 557 kts 60°
2026-05-08 06:29 43.18397 -71.80512 36870 ft 558 kts 60°
2026-05-08 06:30 43.22137 -71.71171 36861 ft 558 kts 60°
2026-05-08 06:30 43.25866 -71.61831 36861 ft 558 kts 60°
2026-05-08 06:31 43.29606 -71.52435 36827 ft 558 kts 61°
2026-05-08 06:31 43.33329 -71.43048 36856 ft 559 kts 61°
2026-05-08 06:32 43.37045 -71.33643 36855 ft 559 kts 61°
2026-05-08 06:32 43.40753 -71.24229 36847 ft 559 kts 61°
2026-05-08 06:33 43.44451 -71.14814 36871 ft 557 kts 61°
2026-05-08 06:33 43.48129 -71.05416 36850 ft 557 kts 61°
2026-05-08 06:34 43.51174 -70.97610 36843 ft 557 kts 61°
2026-05-08 06:34 43.54837 -70.88194 36839 ft 557 kts 61°
2026-05-08 06:35 43.58501 -70.78750 36852 ft 555 kts 62°
2026-05-08 06:35 43.62136 -70.69345 36805 ft 555 kts 62°
2026-05-08 06:36 43.65766 -70.59923 36832 ft 555 kts 62°
2026-05-08 06:36 43.69386 -70.50486 36844 ft 555 kts 62°
2026-05-08 06:37 43.72991 -70.41065 36839 ft 554 kts 62°
2026-05-08 06:37 43.76586 -70.31633 36837 ft 553 kts 63°
2026-05-08 06:38 43.80170 -70.22199 36835 ft 553 kts 63°
2026-05-08 06:38 43.83755 -70.12749 36817 ft 553 kts 63°
2026-05-08 06:39 43.87327 -70.03284 36825 ft 553 kts 63°
2026-05-08 06:39 43.90882 -69.93823 36831 ft 553 kts 64°
2026-05-08 06:40 43.94436 -69.84338 36832 ft 553 kts 64°
2026-05-08 06:40 43.97985 -69.74843 36837 ft 553 kts 64°
2026-05-08 06:41 44.01514 -69.65364 36826 ft 552 kts 64°
2026-05-08 06:41 44.05048 -69.55849 36807 ft 555 kts 64°
2026-05-08 06:42 44.08582 -69.46287 36826 ft 556 kts 64°
2026-05-08 06:42 44.12110 -69.36714 36817 ft 555 kts 65°
2026-05-08 06:43 44.15624 -69.27144 36811 ft 554 kts 65°
2026-05-08 06:43 44.19105 -69.17629 36803 ft 554 kts 65°
2026-05-08 06:44 44.22628 -69.07971 36763 ft 554 kts 65°
2026-05-08 06:44 44.26102 -68.98425 36800 ft 556 kts 65°
2026-05-08 06:45 44.29604 -68.88748 36796 ft 556 kts 65°
2026-05-08 06:45 44.33085 -68.79099 36791 ft 556 kts 65°
2026-05-08 06:46 44.36559 -68.69441 36791 ft 555 kts 66°
2026-05-08 06:46 44.40018 -68.59789 36772 ft 555 kts 66°
2026-05-08 06:47 44.43472 -68.50121 36754 ft 555 kts 66°
2026-05-08 06:47 44.46918 -68.40439 36793 ft 555 kts 66°
2026-05-08 06:48 44.50360 -68.30728 36799 ft 555 kts 66°
2026-05-08 06:48 44.53787 -68.21024 36791 ft 555 kts 66°
2026-05-08 06:49 44.57208 -68.11306 36788 ft 555 kts 66°
2026-05-08 06:49 44.60621 -68.01576 36780 ft 555 kts 66°
2026-05-08 06:50 44.64023 -67.91850 36750 ft 555 kts 67°
2026-05-08 06:50 44.67424 -67.82084 36767 ft 556 kts 67°
2026-05-08 06:51 44.70812 -67.72317 36771 ft 556 kts 67°
2026-05-08 06:51 44.74197 -67.62530 36779 ft 555 kts 67°
2026-05-08 06:52 44.77478 -67.53007 36767 ft 555 kts 68°
2026-05-08 06:52 44.80842 -67.43208 36763 ft 555 kts 68°
2026-05-08 06:53 44.84203 -67.33392 36735 ft 556 kts 68°
2026-05-08 06:53 44.87561 -67.23561 36765 ft 557 kts 67°
2026-05-08 06:54 44.91417 -67.14030 36749 ft 561 kts 59°
2026-05-08 06:54 44.96076 -67.05163 36747 ft 562 kts 52°
2026-05-08 06:55 45.01010 -66.96613 36751 ft 562 kts 52°
2026-05-08 06:55 45.05945 -66.88036 36744 ft 562 kts 52°
2026-05-08 06:56 45.10850 -66.79416 36743 ft 562 kts 53°
2026-05-08 06:56 45.15733 -66.70780 36744 ft 562 kts 53°
2026-05-08 06:57 45.20625 -66.62103 36737 ft 564 kts 53°
2026-05-08 06:57 45.25518 -66.53387 36740 ft 564 kts 53°
2026-05-08 06:58 45.30407 -66.44655 36740 ft 564 kts 53°
2026-05-08 06:58 45.35285 -66.35918 36741 ft 564 kts 53°
2026-05-08 06:59 45.40164 -66.27151 36735 ft 564 kts 53°
2026-05-08 06:59 45.45033 -66.18374 36732 ft 564 kts 53°
2026-05-08 07:00 45.49900 -66.09577 36729 ft 565 kts 54°
2026-05-08 07:00 45.54760 -66.00762 36730 ft 565 kts 54°
2026-05-08 07:01 45.59606 -65.91945 36729 ft 564 kts 54°
2026-05-08 07:01 45.64420 -65.83163 36695 ft 566 kts 54°
2026-05-08 07:02 45.69321 -65.74189 36718 ft 569 kts 54°
2026-05-08 07:02 45.74193 -65.65239 36722 ft 569 kts 54°
2026-05-08 07:03 45.79026 -65.56336 36725 ft 569 kts 54°
2026-05-08 07:03 45.83888 -65.47349 36724 ft 570 kts 54°
2026-05-08 07:04 45.88737 -65.38356 36723 ft 570 kts 55°
2026-05-08 07:04 45.93587 -65.29334 36738 ft 569 kts 55°
2026-05-08 07:05 45.98413 -65.20329 36723 ft 568 kts 55°
2026-05-08 07:05 46.03226 -65.11318 36719 ft 568 kts 55°
2026-05-08 07:06 46.08037 -65.02282 36715 ft 568 kts 55°
2026-05-08 07:06 46.12830 -64.93250 36711 ft 568 kts 55°
2026-05-08 07:07 46.17627 -64.84183 36709 ft 568 kts 55°
2026-05-08 07:07 46.22414 -64.75104 36721 ft 568 kts 55°
2026-05-08 07:08 46.27192 -64.66016 36707 ft 567 kts 56°
2026-05-08 07:08 46.31963 -64.56907 36707 ft 567 kts 56°
2026-05-08 07:09 46.36722 -64.47793 36699 ft 567 kts 56°
2026-05-08 07:09 46.41479 -64.38654 36691 ft 567 kts 56°
2026-05-08 07:10 46.46224 -64.29507 36691 ft 567 kts 56°
2026-05-08 07:10 46.50962 -64.20343 36688 ft 567 kts 56°
2026-05-08 07:11 46.55699 -64.11154 36642 ft 568 kts 56°
2026-05-08 07:11 46.60445 -64.01916 36674 ft 571 kts 57°
2026-05-08 07:12 46.65201 -63.92622 36680 ft 571 kts 57°
2026-05-08 07:12 46.69940 -63.83337 36678 ft 571 kts 57°
2026-05-08 07:13 46.74673 -63.74030 36681 ft 571 kts 57°
2026-05-08 07:13 46.79393 -63.64714 36681 ft 571 kts 57°
2026-05-08 07:14 46.84112 -63.55373 36686 ft 571 kts 57°
2026-05-08 07:14 46.88821 -63.46021 36681 ft 570 kts 57°
2026-05-08 07:15 46.93515 -63.36665 36683 ft 570 kts 57°
2026-05-08 07:15 46.98206 -63.27283 36684 ft 570 kts 57°
2026-05-08 07:16 47.02886 -63.17899 36662 ft 572 kts 58°
2026-05-08 07:16 47.07583 -63.08439 36678 ft 574 kts 58°
2026-05-08 07:17 47.12243 -62.99021 36681 ft 574 kts 58°
2026-05-08 07:17 47.16938 -62.89508 36689 ft 576 kts 58°
2026-05-08 07:18 47.21634 -62.79953 36682 ft 576 kts 58°
2026-05-08 07:18 47.26324 -62.70376 36687 ft 576 kts 58°
2026-05-08 07:19 47.31007 -62.60784 36698 ft 576 kts 59°
2026-05-08 07:19 47.34924 -62.52737 36684 ft 576 kts 59°
2026-05-08 07:20 47.39596 -62.43103 36687 ft 576 kts 59°
2026-05-08 07:20 47.44253 -62.33468 36665 ft 576 kts 59°
2026-05-08 07:21 47.48920 -62.23789 36646 ft 580 kts 59°
2026-05-08 07:21 47.53604 -62.14024 36679 ft 582 kts 59°
2026-05-08 07:22 47.58251 -62.04303 36686 ft 582 kts 59°
2026-05-08 07:22 47.62948 -61.94447 36681 ft 582 kts 60°
2026-05-08 07:23 47.67611 -61.84628 36679 ft 582 kts 60°
2026-05-08 07:23 47.72236 -61.74855 36674 ft 581 kts 60°
2026-05-08 07:24 47.76884 -61.64996 36682 ft 582 kts 60°
2026-05-08 07:24 47.81552 -61.55059 36680 ft 582 kts 60°
2026-05-08 07:25 47.86200 -61.45129 36679 ft 582 kts 60°
2026-05-08 07:26 47.93127 -61.30262 36621 ft 582 kts 60°
2026-05-08 07:26 47.97740 -61.20314 36667 ft 582 kts 60°
2026-05-08 07:27 48.02356 -61.10327 36675 ft 582 kts 60°
2026-05-08 07:27 48.06950 -61.00348 36680 ft 583 kts 60°
2026-05-08 07:28 48.11539 -60.90348 36676 ft 583 kts 60°
2026-05-08 07:28 48.16086 -60.80400 36677 ft 582 kts 60°
2026-05-08 07:29 48.20661 -60.70355 36674 ft 583 kts 60°
2026-05-08 07:29 48.25224 -60.60297 36675 ft 583 kts 61°
2026-05-08 07:30 48.29785 -60.50207 36677 ft 583 kts 61°
2026-05-08 07:30 48.34333 -60.40111 36677 ft 583 kts 61°
2026-05-08 07:31 48.38875 -60.29985 36600 ft 584 kts 61°
2026-05-08 07:31 48.43413 -60.19844 36667 ft 583 kts 61°
2026-05-08 07:32 48.47935 -60.09684 36678 ft 583 kts 61°
2026-05-08 07:32 48.52447 -59.99509 36679 ft 584 kts 61°
2026-05-08 07:33 48.56961 -59.89295 36675 ft 584 kts 62°
2026-05-08 07:33 48.61465 -59.79070 36680 ft 584 kts 62°
2026-05-08 07:34 48.65964 -59.68813 36679 ft 584 kts 62°
2026-05-08 07:34 48.70453 -59.58537 36678 ft 585 kts 62°
2026-05-08 07:35 48.74937 -59.48237 36680 ft 585 kts 62°
2026-05-08 07:35 48.79416 -59.37911 36679 ft 585 kts 62°
2026-05-08 07:36 48.83879 -59.27572 36679 ft 586 kts 62°
2026-05-08 07:36 48.88343 -59.17216 36672 ft 585 kts 62°
2026-05-08 07:37 48.92802 -59.06810 36682 ft 584 kts 62°
2026-05-08 07:37 48.97230 -58.96431 36669 ft 585 kts 62°
2026-05-08 07:38 49.01651 -58.86034 36677 ft 585 kts 62°
2026-05-08 07:38 49.06072 -58.75602 36673 ft 585 kts 62°
2026-05-08 07:39 49.10483 -58.65152 36675 ft 585 kts 63°
2026-05-08 07:39 49.14879 -58.54697 36666 ft 585 kts 63°
2026-05-08 07:40 49.19267 -58.44217 36670 ft 584 kts 63°
2026-05-08 07:40 49.23644 -58.33723 36651 ft 584 kts 63°
2026-05-08 07:41 49.28008 -58.23208 36646 ft 585 kts 63°
2026-05-08 07:41 49.32364 -58.12671 36626 ft 584 kts 62°
2026-05-08 07:42 49.36680 -58.02211 36632 ft 583 kts 63°
2026-05-08 07:42 49.41009 -57.91667 36640 ft 583 kts 62°
2026-05-08 07:43 49.45327 -57.81107 36630 ft 583 kts 62°
2026-05-08 07:43 49.49643 -57.70514 36630 ft 583 kts 62°
2026-05-08 07:44 49.53946 -57.59910 36631 ft 583 kts 63°
2026-05-08 07:44 49.58232 -57.49295 36625 ft 583 kts 62°
2026-05-08 07:45 49.62513 -57.38658 36619 ft 583 kts 62°
2026-05-08 07:45 49.66779 -57.28020 36607 ft 583 kts 63°
2026-05-08 07:46 49.71038 -57.17343 36616 ft 582 kts 63°
2026-05-08 07:46 49.75279 -57.06668 36569 ft 582 kts 62°
2026-05-08 07:47 49.79505 -56.95987 36601 ft 580 kts 62°
2026-05-08 07:47 49.83717 -56.85320 36609 ft 580 kts 62°
2026-05-08 07:48 49.87920 -56.74614 36610 ft 581 kts 62°
2026-05-08 07:48 49.92087 -56.63966 36611 ft 581 kts 62°
2026-05-08 07:49 49.96274 -56.53218 36607 ft 581 kts 62°
2026-05-08 07:49 50.00444 -56.42464 36605 ft 581 kts 62°
2026-05-08 07:50 50.04613 -56.31671 36610 ft 581 kts 62°
2026-05-08 07:50 50.08772 -56.20868 36614 ft 581 kts 62°
2026-05-08 07:51 50.12919 -56.10045 36610 ft 581 kts 63°
2026-05-08 07:51 50.17055 -55.99196 36615 ft 582 kts 62°
2026-05-08 07:52 50.21179 -55.88328 36595 ft 579 kts 62°
2026-05-08 07:52 50.25275 -55.77511 36621 ft 578 kts 62°
2026-05-08 07:53 50.29364 -55.66663 36621 ft 578 kts 62°
2026-05-08 07:53 50.33445 -55.55791 36628 ft 578 kts 62°
2026-05-08 07:54 50.37512 -55.44912 36633 ft 578 kts 62°
2026-05-08 07:54 50.41570 -55.34005 36633 ft 578 kts 62°
2026-05-08 07:55 50.45614 -55.23081 36637 ft 579 kts 62°
2026-05-08 07:55 50.49660 -55.12119 36642 ft 579 kts 62°
2026-05-08 07:56 50.53690 -55.01153 36652 ft 579 kts 62°
2026-05-08 07:56 50.57710 -54.90163 36654 ft 579 kts 62°
2026-05-08 07:57 50.61718 -54.79161 36658 ft 579 kts 62°
2026-05-08 07:57 50.65719 -54.68129 36656 ft 579 kts 62°
2026-05-08 07:58 50.69716 -54.57058 36658 ft 579 kts 63°
2026-05-08 07:58 50.73684 -54.46017 36661 ft 577 kts 62°
2026-05-08 07:59 50.77642 -54.34964 36670 ft 577 kts 63°
2026-05-08 07:59 50.81592 -54.23886 36672 ft 577 kts 63°
2026-05-08 08:00 50.85525 -54.12805 36674 ft 577 kts 63°
2026-05-08 08:00 50.89444 -54.01713 36692 ft 577 kts 63°
2026-05-08 08:01 50.93357 -53.90593 36688 ft 576 kts 63°
2026-05-08 08:01 50.97252 -53.79474 36688 ft 576 kts 63°
2026-05-08 08:02 51.01134 -53.68334 36685 ft 575 kts 63°
2026-05-08 08:02 51.05002 -53.57199 36661 ft 574 kts 63°
2026-05-08 08:03 51.08844 -53.46072 36695 ft 573 kts 62°
2026-05-08 08:03 51.12035 -53.36821 36706 ft 573 kts 62°
2026-05-08 08:04 51.15849 -53.25682 36706 ft 571 kts 63°
2026-05-08 08:04 51.19233 -53.14260 36710 ft 569 kts 68°
2026-05-08 08:05 51.22392 -53.02631 36722 ft 569 kts 69°
2026-05-08 08:05 51.25536 -52.91009 36722 ft 569 kts 69°
2026-05-08 08:06 51.28678 -52.79407 36725 ft 568 kts 68°
2026-05-08 08:06 51.31818 -52.67806 36746 ft 567 kts 69°
2026-05-08 08:07 51.34943 -52.56208 36743 ft 567 kts 69°
2026-05-08 08:07 51.38054 -52.44590 36708 ft 566 kts 68°
2026-05-08 08:08 51.41135 -52.33016 36754 ft 563 kts 68°
2026-05-08 08:08 51.44204 -52.21457 36763 ft 563 kts 68°
2026-05-08 08:09 51.47262 -52.09871 36766 ft 563 kts 69°
2026-05-08 08:09 51.50303 -51.98288 36761 ft 563 kts 69°
2026-05-08 08:10 51.53326 -51.86697 36765 ft 562 kts 68°
2026-05-08 08:10 51.56346 -51.75085 36787 ft 562 kts 69°
2026-05-08 08:11 51.59349 -51.63470 36786 ft 562 kts 69°
2026-05-08 08:11 51.62342 -51.51836 36776 ft 562 kts 69°
2026-05-08 08:12 51.65310 -51.40196 36779 ft 560 kts 68°
2026-05-08 08:12 51.68265 -51.28588 36802 ft 558 kts 67°
2026-05-08 08:13 51.71212 -51.16994 36815 ft 558 kts 68°
2026-05-08 08:13 51.74144 -51.05374 36815 ft 558 kts 68°
2026-05-08 08:14 51.77053 -50.93761 36826 ft 557 kts 68°
2026-05-08 08:14 51.79951 -50.82137 36834 ft 557 kts 68°
2026-05-08 08:15 51.82838 -50.70498 36835 ft 557 kts 68°
2026-05-08 08:15 51.85711 -50.58851 36841 ft 557 kts 68°
2026-05-08 08:16 51.88553 -50.47269 36859 ft 557 kts 68°
2026-05-08 08:16 51.91406 -50.35583 36838 ft 557 kts 68°
2026-05-08 08:17 51.94236 -50.23889 36855 ft 556 kts 67°
2026-05-08 08:17 51.97065 -50.12215 36874 ft 555 kts 67°
2026-05-08 08:18 51.99872 -50.00511 36876 ft 556 kts 67°
2026-05-08 08:18 52.02768 -49.88866 36887 ft 556 kts 65°
2026-05-08 08:19 52.05711 -49.77239 36889 ft 555 kts 65°
2026-05-08 08:19 52.08630 -49.65603 36904 ft 555 kts 66°
2026-05-08 08:20 52.11525 -49.53953 36916 ft 555 kts 66°
2026-05-08 08:20 52.14406 -49.42299 36914 ft 554 kts 66°
2026-05-08 08:21 52.17279 -49.30615 36920 ft 554 kts 66°
2026-05-08 08:21 52.20131 -49.18935 36922 ft 553 kts 65°
2026-05-08 08:22 52.22958 -49.07273 36936 ft 552 kts 65°
2026-05-08 08:22 52.25788 -48.95604 36952 ft 552 kts 65°
2026-05-08 08:23 52.28603 -48.83926 36956 ft 552 kts 65°
2026-05-08 08:23 52.31405 -48.72225 36976 ft 552 kts 65°
2026-05-08 08:24 52.34189 -48.60515 36976 ft 551 kts 65°
2026-05-08 08:24 52.36954 -48.48837 36981 ft 550 kts 65°
2026-05-08 08:25 52.39710 -48.37143 36992 ft 550 kts 65°
2026-05-08 08:25 52.42453 -48.25434 37003 ft 550 kts 65°
2026-05-08 08:26 52.45179 -48.13714 37014 ft 547 kts 65°
2026-05-08 08:26 52.47874 -48.02063 36989 ft 544 kts 65°
2026-05-08 08:27 52.50545 -47.90477 37017 ft 542 kts 65°
2026-05-08 08:27 52.53208 -47.78874 37039 ft 542 kts 65°
2026-05-08 08:28 52.55853 -47.67270 37041 ft 541 kts 65°
2026-05-08 08:28 52.58473 -47.55704 37044 ft 538 kts 65°
2026-05-08 08:29 52.61078 -47.44152 37044 ft 538 kts 65°
2026-05-08 08:29 52.63671 -47.32585 37064 ft 538 kts 65°
2026-05-08 08:30 52.66235 -47.21079 37073 ft 538 kts 65°
2026-05-08 08:30 52.70064 -47.03771 37072 ft 534 kts 65°
2026-05-08 08:31 52.72598 -46.92250 37084 ft 534 kts 65°
2026-05-08 08:31 52.75113 -46.80734 37087 ft 531 kts 65°
2026-05-08 08:32 52.77604 -46.69275 37098 ft 529 kts 65°
2026-05-08 08:32 52.80076 -46.57843 37105 ft 527 kts 65°
2026-05-08 08:33 52.82536 -46.46407 37104 ft 527 kts 65°
2026-05-08 08:33 52.84986 -46.34952 37121 ft 527 kts 66°
2026-05-08 08:34 52.87425 -46.23478 37120 ft 527 kts 66°
2026-05-08 08:34 52.89846 -46.12023 37127 ft 525 kts 66°
2026-05-08 08:35 52.92251 -46.00579 37135 ft 525 kts 66°
2026-05-08 08:35 52.94643 -45.89131 37142 ft 525 kts 66°
2026-05-08 08:36 52.97028 -45.77655 37149 ft 525 kts 66°
2026-05-08 08:36 52.99401 -45.66166 37131 ft 525 kts 66°
2026-05-08 08:37 53.01746 -45.54734 37148 ft 522 kts 66°
2026-05-08 08:37 53.04082 -45.43306 37158 ft 522 kts 66°
2026-05-08 08:38 53.06406 -45.31867 37152 ft 522 kts 66°
2026-05-08 08:38 53.08719 -45.20408 37170 ft 522 kts 66°
2026-05-08 08:39 53.11020 -45.08942 37160 ft 522 kts 66°
2026-05-08 08:39 53.13311 -44.97461 37167 ft 522 kts 66°
2026-05-08 08:40 53.15575 -44.86047 37174 ft 522 kts 66°
2026-05-08 08:40 53.17844 -44.74539 37179 ft 522 kts 67°
2026-05-08 08:41 53.20102 -44.63020 37189 ft 521 kts 67°
2026-05-08 08:41 53.22347 -44.51499 37177 ft 521 kts 67°
2026-05-08 08:42 53.24578 -44.39979 37200 ft 520 kts 67°
2026-05-08 08:42 53.26783 -44.28518 37196 ft 517 kts 67°
2026-05-08 08:43 53.28974 -44.17073 37197 ft 516 kts 67°
2026-05-08 08:43 53.31151 -44.05631 37192 ft 515 kts 67°
2026-05-08 08:44 53.33315 -43.94182 37215 ft 515 kts 67°
2026-05-08 08:44 53.35467 -43.82730 37197 ft 516 kts 68°
2026-05-08 08:45 53.37611 -43.71251 37202 ft 515 kts 68°
2026-05-08 08:45 53.39742 -43.59753 37211 ft 517 kts 67°
2026-05-08 08:46 53.41877 -43.48183 37209 ft 517 kts 67°
2026-05-08 08:46 53.43995 -43.36638 37218 ft 517 kts 68°
2026-05-08 08:47 53.46101 -43.25083 37215 ft 517 kts 68°
2026-05-08 08:47 53.48197 -43.13514 37229 ft 517 kts 68°
2026-05-08 08:48 53.50284 -43.01932 37221 ft 518 kts 68°
2026-05-08 08:48 53.52355 -42.90329 37229 ft 518 kts 69°
2026-05-08 08:49 53.54068 -42.80675 37229 ft 518 kts 69°
2026-05-08 08:49 53.56123 -42.69041 37233 ft 518 kts 69°
2026-05-08 08:50 53.58169 -42.57421 37241 ft 516 kts 70°
2026-05-08 08:50 53.60185 -42.45832 37236 ft 515 kts 70°
2026-05-08 08:51 53.62187 -42.34239 37242 ft 515 kts 70°
2026-05-08 08:51 53.64184 -42.22624 37247 ft 515 kts 70°
2026-05-08 08:52 53.66170 -42.11009 37266 ft 515 kts 70°
2026-05-08 08:52 53.68141 -41.99404 37255 ft 513 kts 70°
2026-05-08 08:53 53.70093 -41.87817 37263 ft 512 kts 70°
2026-05-08 08:53 53.72030 -41.76254 37263 ft 511 kts 70°
2026-05-08 08:54 53.73957 -41.64693 37271 ft 511 kts 70°
2026-05-08 08:54 53.75870 -41.53123 37284 ft 509 kts 70°
2026-05-08 08:55 53.77759 -41.41618 37278 ft 507 kts 70°
2026-05-08 08:55 53.79626 -41.30188 37284 ft 507 kts 70°
2026-05-08 08:56 53.81506 -41.18591 37290 ft 507 kts 70°
2026-05-08 08:56 53.83351 -41.07134 37290 ft 507 kts 70°
2026-05-08 08:57 53.85145 -40.95887 37301 ft 501 kts 70°
2026-05-08 08:57 53.86953 -40.84502 37306 ft 499 kts 70°
2026-05-08 08:58 53.88751 -40.73117 37304 ft 499 kts 70°
2026-05-08 08:58 53.90535 -40.61732 37314 ft 499 kts 70°
2026-05-08 08:59 53.92299 -40.50373 37311 ft 496 kts 70°
2026-05-08 08:59 53.94054 -40.39033 37315 ft 496 kts 70°
2026-05-08 09:00 53.95797 -40.27684 37322 ft 496 kts 70°
2026-05-08 09:00 53.97528 -40.16327 37323 ft 496 kts 70°
2026-05-08 09:01 53.99248 -40.04950 37321 ft 496 kts 71°
2026-05-08 09:01 54.00934 -39.93565 37334 ft 495 kts 71°
2026-05-08 09:02 54.02555 -39.82210 37336 ft 494 kts 71°
2026-05-08 09:02 54.04169 -39.70843 37336 ft 494 kts 71°
2026-05-08 09:03 54.05777 -39.59456 37337 ft 494 kts 71°
2026-05-08 09:03 54.07374 -39.48070 37344 ft 494 kts 71°
2026-05-08 09:04 54.08959 -39.36673 37361 ft 492 kts 71°
2026-05-08 09:04 54.10523 -39.25343 37345 ft 489 kts 71°
2026-05-08 09:05 54.12073 -39.14053 37341 ft 489 kts 71°
2026-05-08 09:05 54.13616 -39.02737 37362 ft 489 kts 71°
2026-05-08 09:06 54.15149 -38.91387 37364 ft 489 kts 71°
2026-05-08 09:06 54.16669 -38.80068 37379 ft 488 kts 72°
2026-05-08 09:07 54.18173 -38.68755 37370 ft 488 kts 72°
2026-05-08 09:07 54.19665 -38.57439 37374 ft 488 kts 72°
2026-05-08 09:08 54.21149 -38.46111 37374 ft 488 kts 72°
2026-05-08 09:08 54.22621 -38.34777 37381 ft 488 kts 72°
2026-05-08 09:09 54.24075 -38.23517 37391 ft 486 kts 72°
2026-05-08 09:09 54.25518 -38.12221 37390 ft 486 kts 73°
2026-05-08 09:10 54.26953 -38.00904 37410 ft 486 kts 73°
2026-05-08 09:10 54.28378 -37.89581 37401 ft 486 kts 73°
2026-05-08 09:11 54.29792 -37.78239 37395 ft 486 kts 73°
2026-05-08 09:11 54.31195 -37.66912 37413 ft 485 kts 73°
2026-05-08 09:12 54.32585 -37.55590 37404 ft 485 kts 73°
2026-05-08 09:12 54.33964 -37.44257 37412 ft 485 kts 73°
2026-05-08 09:13 54.35332 -37.32923 37408 ft 485 kts 73°
2026-05-08 09:13 54.36690 -37.21581 37416 ft 485 kts 73°
2026-05-08 09:14 54.38038 -37.10227 37424 ft 485 kts 74°
2026-05-08 09:14 54.39374 -36.98866 37427 ft 485 kts 74°
2026-05-08 09:15 54.40700 -36.87497 37417 ft 485 kts 74°
2026-05-08 09:15 54.42015 -36.76124 37423 ft 485 kts 74°
2026-05-08 09:16 54.43320 -36.64732 37433 ft 485 kts 74°
2026-05-08 09:16 54.44611 -36.53353 37442 ft 485 kts 74°
2026-05-08 09:17 54.45898 -36.41939 37435 ft 485 kts 74°
2026-05-08 09:17 54.47171 -36.30541 37437 ft 485 kts 74°
2026-05-08 09:18 54.48432 -36.19135 37436 ft 485 kts 74°
2026-05-08 09:18 54.49683 -36.07721 37446 ft 485 kts 74°
2026-05-08 09:19 54.50918 -35.96305 37452 ft 484 kts 74°
2026-05-08 09:19 54.52146 -35.84903 37445 ft 484 kts 74°
2026-05-08 09:20 54.53363 -35.73498 37444 ft 484 kts 74°
2026-05-08 09:20 54.54569 -35.62081 37448 ft 484 kts 74°
2026-05-08 09:21 54.55755 -35.50734 37447 ft 484 kts 74°